Location: Hylvaty SDH
(49.9612°N, 16.4057°E)
Time: 10:13:03
(UTC+01:00)

Altair - All Passes

Search period start: 23 January 2020 00:00
Search period end: 02 February 2020 00:00
Orbit: 1502 x 1682 km, 47.2° (Epoch: 22 January)

Date Brightness Start Highest point End Pass type
(mag) Time Alt. Az. Time Alt. Az. Time Alt. Az.
23 Jan - 07:40:38 10° S 07:48:27 27° SE 07:56:21 10° E daylight
23 Jan - 09:42:01 10° SW 09:51:51 59° SSE 10:01:42 10° E daylight
23 Jan - 11:46:10 10° W 11:56:20 78° S 12:06:23 10° E daylight
23 Jan - 13:50:56 10° W 14:00:52 62° SSW 14:10:34 10° SE daylight
23 Jan - 15:56:12 10° W 16:04:20 29° SW 16:12:17 10° S daylight
24 Jan - 07:15:54 10° S 07:23:25 25° SE 07:31:00 10° E daylight
24 Jan - 09:16:56 10° SW 09:26:42 56° SSE 09:36:30 10° E daylight
24 Jan - 11:20:58 10° W 11:31:08 77° S 11:41:13 10° E daylight
24 Jan - 13:25:43 10° W 13:35:43 64° SSW 13:45:28 10° ESE daylight
24 Jan - 15:30:53 10° W 15:39:17 31° SW 15:47:29 10° SSE daylight
25 Jan - 06:51:13 10° S 06:58:23 23° SE 07:05:36 10° E visible
25 Jan - 08:51:52 10° SW 09:01:33 54° SSE 09:11:18 10° ENE daylight
25 Jan - 10:55:47 10° WSW 11:05:56 77° S 11:16:01 10° E daylight
25 Jan - 13:00:31 10° W 13:10:32 66° SSW 13:20:22 10° ESE daylight
25 Jan - 15:05:35 10° W 15:14:13 34° SW 15:22:40 10° SSE daylight
26 Jan - 06:26:36 10° S 06:33:21 21° SE 06:40:10 10° E visible
26 Jan - 08:26:49 10° SW 08:36:24 52° SSE 08:46:05 10° ENE daylight
26 Jan - 10:30:35 10° WSW 10:40:43 76° S 10:50:50 10° E daylight
26 Jan - 12:35:18 10° W 12:45:22 68° SSW 12:55:15 10° ESE daylight
26 Jan - 14:40:18 10° WNW 14:49:09 36° SW 14:57:47 10° SSE daylight
27 Jan - 06:02:03 10° SSE 06:08:20 19° SE 06:14:41 10° E visible
27 Jan - 08:01:48 10° SW 08:11:16 49° SSE 08:20:52 10° ENE daylight
27 Jan - 10:05:25 10° WSW 10:15:32 76° S 10:25:38 10° E daylight
27 Jan - 12:10:05 10° W 12:20:11 70° SSW 12:30:07 10° ESE daylight
27 Jan - 14:15:02 10° WNW 14:24:03 38° SW 14:32:53 10° SSE daylight
27 Jan - 16:23:46 10° WSW 16:26:29 11° WSW 16:29:10 10° SW daylight
28 Jan - 05:37:35 10° SSE 05:43:20 17° SE 05:49:07 10° E visible
28 Jan - 07:36:48 10° SW 07:46:09 47° SSE 07:55:38 10° ENE daylight
28 Jan - 09:40:14 10° WSW 09:50:19 75° S 10:00:26 10° E daylight
28 Jan - 11:44:53 10° W 11:55:00 71° SSW 12:04:58 10° ESE daylight
28 Jan - 13:49:47 10° WNW 13:58:58 41° SW 14:07:58 10° SSE daylight
28 Jan - 15:57:33 10° W 16:01:30 13° WSW 16:05:26 10° SSW daylight
29 Jan - 05:13:14 10° SSE 05:18:20 15° SE 05:23:28 10° E visible
29 Jan - 07:11:49 10° SSW 07:21:02 44° SE 07:30:24 10° ENE daylight
29 Jan - 09:15:04 10° WSW 09:25:07 73° SSE 09:35:14 10° E daylight
29 Jan - 11:19:41 10° W 11:29:48 73° SSW 11:39:50 10° ESE daylight
29 Jan - 13:24:32 10° WNW 13:33:52 43° SW 13:43:00 10° SSE daylight
29 Jan - 15:31:40 10° W 15:36:31 15° SW 15:41:19 10° SSW daylight
30 Jan - 04:49:02 10° SSE 04:53:21 14° ESE 04:57:41 10° E visible
30 Jan - 06:46:51 10° SSW 06:55:55 42° SE 07:05:10 10° ENE visible
30 Jan - 08:49:55 10° WSW 08:59:55 72° SSE 09:10:03 10° E daylight
30 Jan - 10:54:29 10° W 11:04:37 74° S 11:14:40 10° ESE daylight
30 Jan - 12:59:18 10° WNW 13:08:45 46° SW 13:18:02 10° SE daylight
30 Jan - 15:05:58 10° W 15:11:31 16° SW 15:17:02 10° SSW daylight
31 Jan - 04:25:07 10° SE 04:28:22 12° ESE 04:31:37 10° ESE visible
31 Jan - 06:21:55 10° SSW 06:30:49 39° SE 06:39:55 10° ENE visible
31 Jan - 08:24:46 10° WSW 08:34:44 70° SSE 08:44:50 10° E daylight
31 Jan - 10:29:17 10° W 10:39:24 75° S 10:49:30 10° ESE daylight
31 Jan - 12:34:04 10° WNW 12:43:38 48° SSW 12:53:03 10° SE daylight
31 Jan - 14:40:23 10° W 14:46:31 18° SW 14:52:36 10° SSW daylight
01 Feb - 04:02:00 10° SE 04:03:23 10° ESE 04:04:47 10° ESE visible
01 Feb - 05:57:00 10° SSW 06:05:44 37° SE 06:14:39 10° ENE visible
01 Feb - 07:59:38 10° WSW 08:09:34 69° SSE 08:19:38 10° E daylight
01 Feb - 10:04:05 10° W 10:14:12 76° S 10:24:19 10° ESE daylight
01 Feb - 12:08:51 10° WNW 12:18:30 51° SSW 12:28:02 10° SE daylight
01 Feb - 14:14:52 10° W 14:21:30 20° SW 14:28:04 10° S daylight
